User: anonymous   Login
Location: ???? ??????? ????
(31.2176°N, 31.6797°E)
Time: 22:03:34
(UTC+00:00)
Language:

Delta 142 - Orbit

View from above orbital plane
View from above orbital plane
View from above satellite
View from above satellite

Ground track
Ground track

The orbit data is extracted from the following two-line orbital elements,

1 10954U 78062B   21016.54888739  .00000081  00000-0 -66970-5 0  9997
2 10954  28.4269 151.9403 0698261   9.9318 351.4287 13.50990075 93569
Epoch (UTC): 16 January 2021 13:10:23
Eccentricity: 0.0698261
inclination: 28.4269°
perigee height: 548 km
apogee height: 1588 km
right ascension of ascending node: 151.9403°
argument of perigee: 9.9318°
revolutions per day: 13.50990075
mean anomaly at epoch: 351.4287°
orbit number at epoch: 9356

The dashed part of the orbit path shows where the satellite is in the earth's shadow,  

DLR